Time,TemperatureF,DewpointF,PressureIn,WindDirection,WindDirectionDegrees,WindSpeedMPH,WindSpeedGustMPH,Humidity,HourlyPrecipIn,Conditions,Clouds,dailyrainin,SoftwareType,DateUTC
2013-04-22 00:01:00,52.9,41.5,30.18,North,-999,-999.0,0.0,65,0.00,,---,0.00,VWS V14.01,2013-04-22 04:01:00,
2013-04-22 00:02:00,52.9,41.5,30.18,North,-999,-999.0,0.0,65,0.00,,---,0.00,VWS V14.01,2013-04-22 04:02:00,
2013-04-22 00:04:00,52.9,41.5,30.18,North,-999,-999.0,0.0,65,0.00,,---,0.00,VWS V14.01,2013-04-22 04:04:00,
2013-04-22 00:07:00,52.9,41.5,30.18,North,-999,-999.0,0.0,65,0.00,,---,0.00,VWS V14.01,2013-04-22 04:07:00,
2013-04-22 00:08:00,52.9,41.5,30.17,North,-999,-999.0,0.0,65,0.00,,---,0.00,VWS V14.01,2013-04-22 04:08:00,
2013-04-22 00:14:00,52.7,40.9,30.17,North,-999,-999.0,0.0,64,0.00,,---,0.00,VWS V14.01,2013-04-22 04:14:00,
2013-04-22 00:19:00,52.6,40.8,30.17,North,-999,-999.0,0.0,64,0.00,,---,0.00,VWS V14.01,2013-04-22 04:19:00,
2013-04-22 00:24:00,52.6,40.8,30.18,North,-999,-999.0,0.0,64,0.00,,---,0.00,VWS V14.01,2013-04-22 04:24:00,
2013-04-22 00:29:00,52.6,40.8,30.17,North,-999,-999.0,0.0,64,0.00,,---,0.00,VWS V14.01,2013-04-22 04:29:00,
2013-04-22 00:34:00,52.4,40.6,30.17,North,-999,-999.0,0.0,64,0.00,,---,0.00,VWS V14.01,2013-04-22 04:34:00,
2013-04-22 00:39:00,52.2,40.4,30.17,North,-999,-999.0,0.0,64,0.00,,---,0.00,VWS V14.01,2013-04-22 04:39:00,
2013-04-22 00:44:00,52.2,40.8,30.17,North,-999,-999.0,0.0,65,0.00,,---,0.00,VWS V14.01,2013-04-22 04:44:00,
2013-04-22 00:49:00,52.2,40.4,30.17,North,-999,-999.0,0.0,64,0.00,,---,0.00,VWS V14.01,2013-04-22 04:49:00,
2013-04-22 00:54:00,52.0,40.2,30.17,North,-999,-999.0,0.0,64,0.00,,---,0.00,VWS V14.01,2013-04-22 04:54:00,
2013-04-22 00:59:00,52.0,40.6,30.17,North,-999,-999.0,0.0,65,0.00,,---,0.00,VWS V14.01,2013-04-22 04:59:00,
2013-04-22 01:05:00,51.8,40.0,30.17,North,-999,-999.0,0.0,64,0.00,,---,0.00,VWS V14.01,2013-04-22 05:05:00,
2013-04-22 01:10:00,51.7,40.3,30.17,North,-999,-999.0,0.0,65,0.00,,---,0.00,VWS V14.01,2013-04-22 05:10:00,
2013-04-22 01:15:00,51.5,39.7,30.17,North,-999,-999.0,0.0,64,0.00,,---,0.00,VWS V14.01,2013-04-22 05:15:00,
2013-04-22 01:20:00,51.5,40.1,30.17,North,-999,-999.0,0.0,65,0.00,,---,0.00,VWS V14.01,2013-04-22 05:20:00,
2013-04-22 01:25:00,51.5,39.7,30.17,North,-999,-999.0,0.0,64,0.00,,---,0.00,VWS V14.01,2013-04-22 05:25:00,
2013-04-22 01:30:00,51.5,40.1,30.17,North,-999,-999.0,0.0,65,0.00,,---,0.00,VWS V14.01,2013-04-22 05:30:00,
2013-04-22 01:35:00,51.5,40.1,30.16,North,-999,-999.0,0.0,65,0.00,,---,0.00,VWS V14.01,2013-04-22 05:35:00,
2013-04-22 01:40:00,51.5,39.7,30.16,North,-999,-999.0,0.0,64,0.00,,---,0.00,VWS V14.01,2013-04-22 05:40:00,
2013-04-22 01:45:00,51.5,40.1,30.16,North,-999,-999.0,0.0,65,0.00,,---,0.00,VWS V14.01,2013-04-22 05:45:00,
2013-04-22 01:50:00,51.3,40.0,30.16,North,-999,-999.0,0.0,65,0.00,,---,0.00,VWS V14.01,2013-04-22 05:50:00,
2013-04-22 01:55:00,51.1,39.8,30.16,North,-999,-999.0,0.0,65,0.00,,---,0.00,VWS V14.01,2013-04-22 05:55:00,
2013-04-22 02:00:00,51.1,39.8,30.16,North,-999,-999.0,0.0,65,0.00,,---,0.00,VWS V14.01,2013-04-22 06:00:00,
2013-04-22 02:05:00,50.9,39.6,30.16,North,-999,-999.0,0.0,65,0.00,,---,0.00,VWS V14.01,2013-04-22 06:05:00,
2013-04-22 02:11:00,50.8,39.5,30.16,North,-999,-999.0,0.0,65,0.00,,---,0.00,VWS V14.01,2013-04-22 06:11:00,
2013-04-22 02:16:00,50.6,39.7,30.16,North,-999,-999.0,0.0,66,0.00,,---,0.00,VWS V14.01,2013-04-22 06:16:00,
2013-04-22 02:21:00,50.6,39.7,30.16,North,-999,-999.0,0.0,66,0.00,,---,0.00,VWS V14.01,2013-04-22 06:21:00,
2013-04-22 02:26:00,50.4,38.7,30.16,North,-999,-999.0,0.0,64,0.00,,---,0.00,VWS V14.01,2013-04-22 06:26:00,
2013-04-22 02:31:00,50.2,38.9,30.16,North,-999,-999.0,0.0,65,0.00,,---,0.00,VWS V14.01,2013-04-22 06:31:00,
2013-04-22 02:36:00,50.0,39.1,30.16,North,-999,-999.0,0.0,66,0.00,,---,0.00,VWS V14.01,2013-04-22 06:36:00,
2013-04-22 02:41:00,49.9,39.0,30.16,North,-999,-999.0,0.0,66,0.00,,---,0.00,VWS V14.01,2013-04-22 06:41:00,
2013-04-22 02:46:00,49.7,38.8,30.16,North,-999,-999.0,0.0,66,0.00,,---,0.00,VWS V14.01,2013-04-22 06:46:00,
2013-04-22 02:51:00,49.5,38.6,30.16,North,-999,-999.0,0.0,66,0.00,,---,0.00,VWS V14.01,2013-04-22 06:51:00,
2013-04-22 02:56:00,49.3,38.4,30.16,North,-999,-999.0,0.0,66,0.00,,---,0.00,VWS V14.01,2013-04-22 06:56:00,
2013-04-22 03:01:00,49.0,38.5,30.16,North,-999,-999.0,0.0,67,0.00,,---,0.00,VWS V14.01,2013-04-22 07:01:00,
2013-04-22 03:07:00,48.6,38.2,30.16,North,-999,-999.0,0.0,67,0.00,,---,0.00,VWS V14.01,2013-04-22 07:07:00,
2013-04-22 03:12:00,48.4,38.3,30.16,North,-999,-999.0,0.0,68,0.00,,---,0.00,VWS V14.01,2013-04-22 07:12:00,
2013-04-22 03:17:00,48.2,38.2,30.15,North,-999,-999.0,0.0,68,0.00,,---,0.00,VWS V14.01,2013-04-22 07:17:00,
2013-04-22 03:22:00,48.1,38.0,30.15,North,-999,-999.0,0.0,68,0.00,,---,0.00,VWS V14.01,2013-04-22 07:22:00,
2013-04-22 03:27:00,47.9,37.9,30.15,North,-999,-999.0,0.0,68,0.00,,---,0.00,VWS V14.01,2013-04-22 07:27:00,
2013-04-22 03:32:00,47.5,37.8,30.15,North,-999,-999.0,0.0,69,0.00,,---,0.00,VWS V14.01,2013-04-22 07:32:00,
2013-04-22 03:37:00,47.2,37.9,30.15,North,-999,-999.0,0.0,70,0.00,,---,0.00,VWS V14.01,2013-04-22 07:37:00,
2013-04-22 03:42:00,47.0,38.1,30.15,North,-999,-999.0,0.0,71,0.00,,---,0.00,VWS V14.01,2013-04-22 07:42:00,
2013-04-22 03:47:00,46.8,37.9,30.15,North,-999,-999.0,0.0,71,0.00,,---,0.00,VWS V14.01,2013-04-22 07:47:00,
2013-04-22 03:52:00,46.6,37.7,30.15,North,-999,-999.0,0.0,71,0.00,,---,0.00,VWS V14.01,2013-04-22 07:52:00,
2013-04-22 03:57:00,46.4,37.9,30.15,North,-999,-999.0,0.0,72,0.00,,---,0.00,VWS V14.01,2013-04-22 07:57:00,
2013-04-22 04:02:00,46.3,37.8,30.15,North,-999,-999.0,0.0,72,0.00,,---,0.00,VWS V14.01,2013-04-22 08:02:00,
2013-04-22 04:08:00,46.1,37.6,30.15,North,-999,-999.0,0.0,72,0.00,,---,0.00,VWS V14.01,2013-04-22 08:08:00,
2013-04-22 04:13:00,45.9,37.8,30.15,North,-999,-999.0,0.0,73,0.00,,---,0.00,VWS V14.01,2013-04-22 08:13:00,
2013-04-22 04:18:00,45.7,37.9,30.15,North,-999,-999.0,0.0,74,0.00,,---,0.00,VWS V14.01,2013-04-22 08:18:00,
2013-04-22 04:23:00,45.7,37.9,30.15,North,-999,-999.0,0.0,74,0.00,,---,0.00,VWS V14.01,2013-04-22 08:23:00,
2013-04-22 04:28:00,45.4,37.6,30.15,North,-999,-999.0,0.0,74,0.00,,---,0.00,VWS V14.01,2013-04-22 08:28:00,
2013-04-22 04:33:00,45.0,37.2,30.15,North,-999,-999.0,0.0,74,0.00,,---,0.00,VWS V14.01,2013-04-22 08:33:00,
2013-04-22 04:38:00,45.0,37.2,30.15,North,-999,-999.0,0.0,74,0.00,,---,0.00,VWS V14.01,2013-04-22 08:38:00,
2013-04-22 04:43:00,44.8,37.0,30.15,North,-999,-999.0,0.0,74,0.00,,---,0.00,VWS V14.01,2013-04-22 08:43:00,
2013-04-22 04:48:00,44.6,37.2,30.15,North,-999,-999.0,0.0,75,0.00,,---,0.00,VWS V14.01,2013-04-22 08:48:00,
2013-04-22 04:53:00,44.6,37.2,30.15,North,-999,-999.0,0.0,75,0.00,,---,0.00,VWS V14.01,2013-04-22 08:53:00,
2013-04-22 04:58:00,44.6,37.2,30.15,North,-999,-999.0,0.0,75,0.00,,---,0.00,VWS V14.01,2013-04-22 08:58:00,
2013-04-22 05:04:00,44.5,37.1,30.15,North,-999,-999.0,0.0,75,0.00,,---,0.00,VWS V14.01,2013-04-22 09:04:00,
2013-04-22 05:09:00,44.5,37.1,30.15,North,-999,-999.0,0.0,75,0.00,,---,0.00,VWS V14.01,2013-04-22 09:09:00,
2013-04-22 05:14:00,44.3,36.9,30.16,North,-999,-999.0,0.0,75,0.00,,---,0.00,VWS V14.01,2013-04-22 09:14:00,
2013-04-22 05:19:00,44.3,36.9,30.16,North,-999,-999.0,0.0,75,0.00,,---,0.00,VWS V14.01,2013-04-22 09:19:00,
2013-04-22 05:24:00,44.1,36.7,30.16,North,-999,-999.0,0.0,75,0.00,,---,0.00,VWS V14.01,2013-04-22 09:24:00,
2013-04-22 05:29:00,43.9,36.8,30.16,North,-999,-999.0,0.0,76,0.00,,---,0.00,VWS V14.01,2013-04-22 09:29:00,
2013-04-22 05:34:00,43.7,37.0,30.16,North,-999,-999.0,0.0,77,0.00,,---,0.00,VWS V14.01,2013-04-22 09:34:00,
2013-04-22 05:39:00,43.6,36.9,30.16,North,-999,-999.0,0.0,77,0.00,,---,0.00,VWS V14.01,2013-04-22 09:39:00,
2013-04-22 05:44:00,43.6,36.9,30.16,North,-999,-999.0,0.0,77,0.00,,---,0.00,VWS V14.01,2013-04-22 09:44:00,
2013-04-22 05:49:00,43.6,36.9,30.16,North,-999,-999.0,0.0,77,0.00,,---,0.00,VWS V14.01,2013-04-22 09:49:00,
2013-04-22 05:54:00,43.7,37.0,30.16,North,-999,-999.0,0.0,77,0.00,,---,0.00,VWS V14.01,2013-04-22 09:54:00,
2013-04-22 05:59:00,43.7,37.3,30.17,North,-999,-999.0,0.0,78,0.00,,---,0.00,VWS V14.01,2013-04-22 09:59:00,
2013-04-22 06:04:00,43.6,37.2,30.17,North,-999,-999.0,0.0,78,0.00,,---,0.00,VWS V14.01,2013-04-22 10:04:00,
2013-04-22 06:10:00,43.6,37.2,30.17,North,-999,-999.0,0.0,78,0.00,,---,0.00,VWS V14.01,2013-04-22 10:10:00,
2013-04-22 06:15:00,43.6,37.2,30.18,North,-999,-999.0,0.0,78,0.00,,---,0.00,VWS V14.01,2013-04-22 10:15:00,
2013-04-22 06:20:00,43.6,37.2,30.18,North,-999,-999.0,0.0,78,0.00,,---,0.00,VWS V14.01,2013-04-22 10:20:00,
2013-04-22 06:25:00,43.7,37.3,30.18,North,-999,-999.0,0.0,78,0.00,,---,0.00,VWS V14.01,2013-04-22 10:25:00,
2013-04-22 06:30:00,43.7,37.6,30.18,North,-999,-999.0,0.0,79,0.00,,---,0.00,VWS V14.01,2013-04-22 10:30:00,
2013-04-22 06:35:00,43.9,37.8,30.18,North,-999,-999.0,0.0,79,0.00,,---,0.00,VWS V14.01,2013-04-22 10:35:00,
2013-04-22 06:40:00,43.9,37.8,30.18,North,-999,-999.0,0.0,79,0.00,,---,0.00,VWS V14.01,2013-04-22 10:40:00,
2013-04-22 06:45:00,43.9,37.8,30.18,North,-999,-999.0,0.0,79,0.00,,---,0.00,VWS V14.01,2013-04-22 10:45:00,
2013-04-22 06:50:00,44.3,38.2,30.19,North,-999,-999.0,0.0,79,0.00,,---,0.00,VWS V14.01,2013-04-22 10:50:00,
2013-04-22 06:55:00,44.3,38.2,30.19,North,-999,-999.0,0.0,79,0.00,,---,0.00,VWS V14.01,2013-04-22 10:55:00,
2013-04-22 07:01:00,44.5,38.4,30.19,North,-999,-999.0,0.0,79,0.00,,---,0.00,VWS V14.01,2013-04-22 11:01:00,
2013-04-22 07:06:00,44.6,38.5,30.19,North,-999,-999.0,0.0,79,0.00,,---,0.00,VWS V14.01,2013-04-22 11:06:00,
2013-04-22 07:11:00,44.8,38.7,30.19,North,-999,-999.0,0.0,79,0.00,,---,0.00,VWS V14.01,2013-04-22 11:11:00,
2013-04-22 07:16:00,45.0,38.9,30.19,North,-999,-999.0,0.0,79,0.00,,---,0.00,VWS V14.01,2013-04-22 11:16:00,
2013-04-22 07:21:00,45.0,38.9,30.19,North,-999,-999.0,0.0,79,0.00,,---,0.00,VWS V14.01,2013-04-22 11:21:00,
2013-04-22 07:26:00,45.2,38.8,30.19,North,-999,-999.0,0.0,78,0.00,,---,0.00,VWS V14.01,2013-04-22 11:26:00,
2013-04-22 07:31:00,45.4,39.0,30.20,North,-999,-999.0,0.0,78,0.00,,---,0.00,VWS V14.01,2013-04-22 11:31:00,
2013-04-22 07:36:00,45.4,38.6,30.20,North,-999,-999.0,0.0,77,0.00,,---,0.00,VWS V14.01,2013-04-22 11:36:00,
2013-04-22 07:41:00,45.5,38.7,30.20,North,-999,-999.0,0.0,77,0.00,,---,0.00,VWS V14.01,2013-04-22 11:41:00,
2013-04-22 07:46:00,45.7,38.9,30.20,North,-999,-999.0,0.0,77,0.00,,---,0.00,VWS V14.01,2013-04-22 11:46:00,
2013-04-22 07:51:00,45.9,39.1,30.20,North,-999,-999.0,0.0,77,0.00,,---,0.00,VWS V14.01,2013-04-22 11:51:00,
2013-04-22 07:56:00,46.3,39.5,30.20,North,-999,-999.0,0.0,77,0.00,,---,0.00,VWS V14.01,2013-04-22 11:56:00,
2013-04-22 08:01:00,46.4,39.9,30.21,North,-999,-999.0,0.0,78,0.00,,---,0.00,VWS V14.01,2013-04-22 12:01:00,
2013-04-22 08:07:00,46.8,40.0,30.20,North,-999,-999.0,0.0,77,0.00,,---,0.00,VWS V14.01,2013-04-22 12:07:00,
2013-04-22 08:12:00,47.0,40.2,30.21,North,-999,-999.0,0.0,77,0.00,,---,0.00,VWS V14.01,2013-04-22 12:12:00,
2013-04-22 08:17:00,47.2,40.0,30.21,North,-999,-999.0,0.0,76,0.00,,---,0.00,VWS V14.01,2013-04-22 12:17:00,
2013-04-22 08:22:00,47.5,40.0,30.21,North,-999,-999.0,0.0,75,0.00,,---,0.00,VWS V14.01,2013-04-22 12:22:00,
2013-04-22 08:27:00,47.7,40.2,30.21,North,-999,-999.0,0.0,75,0.00,,---,0.00,VWS V14.01,2013-04-22 12:27:00,
2013-04-22 08:32:00,47.9,40.0,30.21,North,-999,-999.0,0.0,74,0.00,,---,0.00,VWS V14.01,2013-04-22 12:32:00,
2013-04-22 08:37:00,48.1,40.2,30.21,North,-999,-999.0,0.0,74,0.00,,---,0.00,VWS V14.01,2013-04-22 12:37:00,
2013-04-22 08:42:00,48.2,40.0,30.21,North,-999,-999.0,0.0,73,0.00,,---,0.00,VWS V14.01,2013-04-22 12:42:00,
2013-04-22 08:47:00,48.4,39.8,30.20,North,-999,-999.0,0.0,72,0.00,,---,0.00,VWS V14.01,2013-04-22 12:47:00,
2013-04-22 08:52:00,48.6,40.0,30.20,North,-999,-999.0,0.0,72,0.00,,---,0.00,VWS V14.01,2013-04-22 12:52:00,
2013-04-22 08:57:00,49.0,40.4,30.20,North,-999,-999.0,0.0,72,0.00,,---,0.00,VWS V14.01,2013-04-22 12:57:00,
2013-04-22 09:03:00,49.1,39.8,30.21,North,-999,-999.0,0.0,70,0.00,,---,0.00,VWS V14.01,2013-04-22 13:03:00,
2013-04-22 09:08:00,49.3,39.6,30.21,North,-999,-999.0,0.0,69,0.00,,---,0.00,VWS V14.01,2013-04-22 13:08:00,
2013-04-22 09:13:00,49.5,39.8,30.21,North,-999,-999.0,0.0,69,0.00,,---,0.00,VWS V14.01,2013-04-22 13:13:00,
2013-04-22 09:18:00,49.7,39.6,30.21,North,-999,-999.0,0.0,68,0.00,,---,0.00,VWS V14.01,2013-04-22 13:18:00,
2013-04-22 09:23:00,50.0,39.9,30.21,North,-999,-999.0,0.0,68,0.00,,---,0.00,VWS V14.01,2013-04-22 13:23:00,
2013-04-22 09:28:00,50.4,39.9,30.21,North,-999,-999.0,0.0,67,0.00,,---,0.00,VWS V14.01,2013-04-22 13:28:00,
2013-04-22 09:33:00,50.8,39.9,30.20,North,-999,-999.0,0.0,66,0.00,,---,0.00,VWS V14.01,2013-04-22 13:33:00,
2013-04-22 09:38:00,51.1,39.8,30.20,North,-999,-999.0,0.0,65,0.00,,---,0.00,VWS V14.01,2013-04-22 13:38:00,
2013-04-22 09:43:00,51.3,39.2,30.20,North,-999,-999.0,0.0,63,0.00,,---,0.00,VWS V14.01,2013-04-22 13:43:00,
2013-04-22 09:48:00,51.5,39.7,30.20,North,-999,-999.0,0.0,64,0.00,,---,0.00,VWS V14.01,2013-04-22 13:48:00,
2013-04-22 09:53:00,51.5,39.3,30.20,North,-999,-999.0,0.0,63,0.00,,---,0.00,VWS V14.01,2013-04-22 13:53:00,
2013-04-22 09:58:00,51.8,39.2,30.20,North,-999,-999.0,0.0,62,0.00,,---,0.00,VWS V14.01,2013-04-22 13:58:00,
2013-04-22 10:03:00,52.2,39.6,30.19,North,-999,-999.0,0.0,62,0.00,,---,0.00,VWS V14.01,2013-04-22 14:03:00,
2013-04-22 10:09:00,52.4,39.4,30.19,North,-999,-999.0,0.0,61,0.00,,---,0.00,VWS V14.01,2013-04-22 14:09:00,
2013-04-22 10:14:00,53.1,40.0,30.19,North,-999,-999.0,0.0,61,0.00,,---,0.00,VWS V14.01,2013-04-22 14:14:00,
2013-04-22 10:19:00,53.3,39.3,30.19,North,-999,-999.0,0.0,59,0.00,,---,0.00,VWS V14.01,2013-04-22 14:19:00,
2013-04-22 10:24:00,53.5,39.5,30.19,North,-999,-999.0,0.0,59,0.00,,---,0.00,VWS V14.01,2013-04-22 14:24:00,
2013-04-22 10:29:00,53.8,39.8,30.19,North,-999,-999.0,0.0,59,0.00,,---,0.00,VWS V14.01,2013-04-22 14:29:00,
2013-04-22 10:34:00,54.4,40.0,30.19,North,-999,-999.0,0.0,58,0.00,,---,0.00,VWS V14.01,2013-04-22 14:34:00,
2013-04-22 10:39:00,54.5,39.6,30.19,North,-999,-999.0,0.0,57,0.00,,---,0.00,VWS V14.01,2013-04-22 14:39:00,
2013-04-22 10:44:00,55.1,39.7,30.19,North,-999,-999.0,0.0,56,0.00,,---,0.00,VWS V14.01,2013-04-22 14:44:00,
2013-04-22 10:50:00,55.4,40.0,30.18,North,-999,-999.0,0.0,56,0.00,,---,0.00,VWS V14.01,2013-04-22 14:50:00,
2013-04-22 10:55:00,58.0,41.0,30.19,North,-999,-999.0,0.0,53,0.00,,---,0.00,VWS V14.01,2013-04-22 14:55:00,
2013-04-22 11:02:00,60.3,42.6,30.18,North,-999,-999.0,0.0,52,0.00,,---,0.00,VWS V14.01,2013-04-22 15:02:00,
2013-04-22 11:08:00,61.6,42.8,30.18,North,-999,-999.0,0.0,50,0.00,,---,0.00,VWS V14.01,2013-04-22 15:08:00,
2013-04-22 11:11:00,62.6,42.7,30.18,North,-999,-999.0,0.0,48,0.00,,---,0.00,VWS V14.01,2013-04-22 15:11:00,
2013-04-22 11:14:00,62.6,42.7,30.18,North,-999,-999.0,0.0,48,0.00,,---,0.00,VWS V14.01,2013-04-22 15:14:00,
2013-04-22 11:20:00,62.6,42.7,30.18,North,-999,-999.0,0.0,48,0.00,,---,0.00,VWS V14.01,2013-04-22 15:20:00,
2013-04-22 11:59:00,65.7,42.0,30.16,North,-999,-999.0,0.0,42,0.00,,---,0.00,VWS V14.01,2013-04-22 15:59:00,
2013-04-22 12:06:00,65.7,40.7,30.16,North,-999,-999.0,0.0,40,0.00,,---,0.00,VWS V14.01,2013-04-22 16:06:00,
2013-04-22 12:11:00,67.0,41.9,30.16,North,-999,-999.0,0.0,40,0.00,,---,0.00,VWS V14.01,2013-04-22 16:11:00,
2013-04-22 12:16:00,67.3,41.5,30.15,North,-999,-999.0,0.0,39,0.00,,---,0.00,VWS V14.01,2013-04-22 16:16:00,
2013-04-22 12:21:00,67.5,41.7,30.15,North,-999,-999.0,0.0,39,0.00,,---,0.00,VWS V14.01,2013-04-22 16:21:00,
2013-04-22 12:26:00,67.1,41.3,30.15,North,-999,-999.0,0.0,39,0.00,,---,0.00,VWS V14.01,2013-04-22 16:26:00,
2013-04-22 12:31:00,67.1,40.7,30.15,North,-999,-999.0,0.0,38,0.00,,---,0.00,VWS V14.01,2013-04-22 16:31:00,
2013-04-22 12:36:00,67.7,41.9,30.14,North,-999,-999.0,0.0,39,0.00,,---,0.00,VWS V14.01,2013-04-22 16:36:00,
2013-04-22 12:41:00,68.0,42.1,30.14,North,-999,-999.0,0.0,39,0.00,,---,0.00,VWS V14.01,2013-04-22 16:41:00,
2013-04-22 12:46:00,68.9,41.6,30.13,North,-999,-999.0,0.0,37,0.00,,---,0.00,VWS V14.01,2013-04-22 16:46:00,
2013-04-22 12:51:00,68.9,42.3,30.13,North,-999,-999.0,0.0,38,0.00,,---,0.00,VWS V14.01,2013-04-22 16:51:00,
2013-04-22 12:56:00,69.3,40.5,30.13,North,-999,-999.0,0.0,35,0.00,,---,0.00,VWS V14.01,2013-04-22 16:56:00,
2013-04-22 13:02:00,69.5,42.8,30.13,North,-999,-999.0,0.0,38,0.00,,---,0.00,VWS V14.01,2013-04-22 17:02:00,
2013-04-22 13:07:00,69.1,40.3,30.13,North,-999,-999.0,0.0,35,0.00,,---,0.00,VWS V14.01,2013-04-22 17:07:00,
2013-04-22 13:12:00,69.1,41.8,30.12,North,-999,-999.0,0.0,37,0.00,,---,0.00,VWS V14.01,2013-04-22 17:12:00,
2013-04-22 13:17:00,69.7,42.3,30.12,North,-999,-999.0,0.0,37,0.00,,---,0.00,VWS V14.01,2013-04-22 17:17:00,
2013-04-22 13:22:00,70.6,41.7,30.12,North,-999,-999.0,0.0,35,0.00,,---,0.00,VWS V14.01,2013-04-22 17:22:00,
2013-04-22 13:27:00,70.4,42.9,30.11,North,-999,-999.0,0.0,37,0.00,,---,0.00,VWS V14.01,2013-04-22 17:27:00,
2013-04-22 13:32:00,70.7,43.2,30.11,North,-999,-999.0,0.0,37,0.00,,---,0.00,VWS V14.01,2013-04-22 17:32:00,
2013-04-22 13:37:00,71.1,42.1,30.11,North,-999,-999.0,0.0,35,0.00,,---,0.00,VWS V14.01,2013-04-22 17:37:00,
2013-04-22 13:42:00,71.6,42.5,30.11,North,-999,-999.0,0.0,35,0.00,,---,0.00,VWS V14.01,2013-04-22 17:42:00,
2013-04-22 13:47:00,71.8,42.7,30.11,North,-999,-999.0,0.0,35,0.00,,---,0.00,VWS V14.01,2013-04-22 17:47:00,
2013-04-22 13:52:00,72.5,42.6,30.11,North,-999,-999.0,0.0,34,0.00,,---,0.00,VWS V14.01,2013-04-22 17:52:00,
2013-04-22 13:57:00,73.4,44.1,30.10,North,-999,-999.0,0.0,35,0.00,,---,0.00,VWS V14.01,2013-04-22 17:57:00,
2013-04-22 14:02:00,73.1,43.1,30.10,North,-999,-999.0,0.0,34,0.00,,---,0.00,VWS V14.01,2013-04-22 18:02:00,
2013-04-22 14:08:00,73.6,42.8,30.10,North,-999,-999.0,0.0,33,0.00,,---,0.00,VWS V14.01,2013-04-22 18:08:00,
2013-04-22 14:14:00,73.8,44.5,30.09,North,-999,-999.0,0.0,35,0.00,,---,0.00,VWS V14.01,2013-04-22 18:14:00,
2013-04-22 14:19:00,74.5,45.1,30.09,North,-999,-999.0,0.0,35,0.00,,---,0.00,VWS V14.01,2013-04-22 18:19:00,
2013-04-22 14:24:00,75.1,44.1,30.09,North,-999,-999.0,0.0,33,0.00,,---,0.00,VWS V14.01,2013-04-22 18:24:00,
2013-04-22 14:29:00,74.3,42.6,30.09,North,-999,-999.0,0.0,32,0.00,,---,0.00,VWS V14.01,2013-04-22 18:29:00,
2013-04-22 14:34:00,73.1,43.1,30.09,North,-999,-999.0,0.0,34,0.00,,---,0.00,VWS V14.01,2013-04-22 18:34:00,
2013-04-22 14:40:00,73.1,43.1,30.09,North,-999,-999.0,0.0,34,0.00,,---,0.00,VWS V14.01,2013-04-22 18:40:00,
2013-04-22 14:46:00,73.1,41.5,30.09,North,-999,-999.0,0.0,32,0.00,,---,0.00,VWS V14.01,2013-04-22 18:46:00,
2013-04-22 14:51:00,73.8,43.7,30.09,North,-999,-999.0,0.0,34,0.00,,---,0.00,VWS V14.01,2013-04-22 18:51:00,
2013-04-22 14:57:00,74.3,43.4,30.09,North,-999,-999.0,0.0,33,0.00,,---,0.00,VWS V14.01,2013-04-22 18:57:00,
2013-04-22 15:02:00,75.1,44.1,30.09,North,-999,-999.0,0.0,33,0.00,,---,0.00,VWS V14.01,2013-04-22 19:02:00,
2013-04-22 15:08:00,75.2,43.3,30.09,North,-999,-999.0,0.0,32,0.00,,---,0.00,VWS V14.01,2013-04-22 19:08:00,
2013-04-22 15:13:00,75.4,42.7,30.08,North,-999,-999.0,0.0,31,0.00,,---,0.00,VWS V14.01,2013-04-22 19:13:00,
2013-04-22 15:18:00,76.1,44.1,30.08,North,-999,-999.0,0.0,32,0.00,,---,0.00,VWS V14.01,2013-04-22 19:18:00,
2013-04-22 15:23:00,76.1,42.5,30.08,North,-999,-999.0,0.0,30,0.00,,---,0.00,VWS V14.01,2013-04-22 19:23:00,
2013-04-22 15:28:00,74.9,42.3,30.08,North,-999,-999.0,0.0,31,0.00,,---,0.00,VWS V14.01,2013-04-22 19:28:00,
2013-04-22 15:33:00,76.0,44.0,30.07,North,-999,-999.0,0.0,32,0.00,,---,0.00,VWS V14.01,2013-04-22 19:33:00,
2013-04-22 15:38:00,76.7,43.0,30.07,North,-999,-999.0,0.0,30,0.00,,---,0.00,VWS V14.01,2013-04-22 19:38:00,
2013-04-22 15:43:00,76.5,43.7,30.07,North,-999,-999.0,0.0,31,0.00,,---,0.00,VWS V14.01,2013-04-22 19:43:00,
2013-04-22 15:48:00,77.4,43.6,30.06,North,-999,-999.0,0.0,30,0.00,,---,0.00,VWS V14.01,2013-04-22 19:48:00,
2013-04-22 15:53:00,76.0,42.4,30.06,North,-999,-999.0,0.0,30,0.00,,---,0.00,VWS V14.01,2013-04-22 19:53:00,
2013-04-22 15:58:00,76.7,43.0,30.06,North,-999,-999.0,0.0,30,0.00,,---,0.00,VWS V14.01,2013-04-22 19:58:00,
2013-04-22 16:04:00,77.8,44.8,30.05,North,-999,-999.0,0.0,31,0.00,,---,0.00,VWS V14.01,2013-04-22 20:04:00,
2013-04-22 16:09:00,77.8,43.0,30.05,North,-999,-999.0,0.0,29,0.00,,---,0.00,VWS V14.01,2013-04-22 20:09:00,
2013-04-22 16:14:00,76.1,41.6,30.05,North,-999,-999.0,0.0,29,0.00,,---,0.00,VWS V14.01,2013-04-22 20:14:00,
2013-04-22 16:19:00,76.0,42.4,30.05,North,-999,-999.0,0.0,30,0.00,,---,0.00,VWS V14.01,2013-04-22 20:19:00,
2013-04-22 16:24:00,77.2,42.5,30.05,North,-999,-999.0,0.0,29,0.00,,---,0.00,VWS V14.01,2013-04-22 20:24:00,
2013-04-22 16:29:00,77.4,43.6,30.05,North,-999,-999.0,0.0,30,0.00,,---,0.00,VWS V14.01,2013-04-22 20:29:00,
2013-04-22 16:34:00,78.5,43.6,30.04,North,-999,-999.0,0.0,29,0.00,,---,0.00,VWS V14.01,2013-04-22 20:34:00,
2013-04-22 16:39:00,77.9,44.0,30.04,North,-999,-999.0,0.0,30,0.00,,---,0.00,VWS V14.01,2013-04-22 20:39:00,
2013-04-22 16:44:00,77.8,42.1,30.04,North,-999,-999.0,0.0,28,0.00,,---,0.00,VWS V14.01,2013-04-22 20:44:00,
2013-04-22 16:49:00,76.7,41.2,30.04,North,-999,-999.0,0.0,28,0.00,,---,0.00,VWS V14.01,2013-04-22 20:49:00,
2013-04-22 16:54:00,76.5,41.9,30.04,North,-999,-999.0,0.0,29,0.00,,---,0.00,VWS V14.01,2013-04-22 20:54:00,
2013-04-22 16:59:00,76.0,41.5,30.04,North,-999,-999.0,0.0,29,0.00,,---,0.00,VWS V14.01,2013-04-22 20:59:00,
2013-04-22 17:05:00,76.7,42.1,30.04,North,-999,-999.0,0.0,29,0.00,,---,0.00,VWS V14.01,2013-04-22 21:05:00,
2013-04-22 17:10:00,76.5,41.9,30.03,North,-999,-999.0,0.0,29,0.00,,---,0.00,VWS V14.01,2013-04-22 21:10:00,
2013-04-22 17:15:00,76.7,42.1,30.03,North,-999,-999.0,0.0,29,0.00,,---,0.00,VWS V14.01,2013-04-22 21:15:00,
2013-04-22 17:20:00,76.3,40.8,30.03,North,-999,-999.0,0.0,28,0.00,,---,0.00,VWS V14.01,2013-04-22 21:20:00,
2013-04-22 17:25:00,76.5,41.9,30.03,North,-999,-999.0,0.0,29,0.00,,---,0.00,VWS V14.01,2013-04-22 21:25:00,
2013-04-22 17:30:00,75.4,40.1,30.03,North,-999,-999.0,0.0,28,0.00,,---,0.00,VWS V14.01,2013-04-22 21:30:00,
2013-04-22 17:35:00,73.6,39.4,30.03,North,-999,-999.0,0.0,29,0.00,,---,0.00,VWS V14.01,2013-04-22 21:35:00,
2013-04-22 17:40:00,74.5,40.2,30.03,North,-999,-999.0,0.0,29,0.00,,---,0.00,VWS V14.01,2013-04-22 21:40:00,
2013-04-22 17:45:00,75.6,41.1,30.02,North,-999,-999.0,0.0,29,0.00,,---,0.00,VWS V14.01,2013-04-22 21:45:00,
2013-04-22 17:50:00,76.3,41.7,30.02,North,-999,-999.0,0.0,29,0.00,,---,0.00,VWS V14.01,2013-04-22 21:50:00,
2013-04-22 17:55:00,76.9,41.3,30.02,North,-999,-999.0,0.0,28,0.00,,---,0.00,VWS V14.01,2013-04-22 21:55:00,
2013-04-22 18:01:00,76.5,40.1,30.02,North,-999,-999.0,0.0,27,0.00,,---,0.00,VWS V14.01,2013-04-22 22:01:00,
2013-04-22 18:06:00,75.6,40.2,30.02,North,-999,-999.0,0.0,28,0.00,,---,0.00,VWS V14.01,2013-04-22 22:06:00,
2013-04-22 18:11:00,75.2,39.9,30.02,North,-999,-999.0,0.0,28,0.00,,---,0.00,VWS V14.01,2013-04-22 22:11:00,
2013-04-22 18:16:00,75.2,39.9,30.02,North,-999,-999.0,0.0,28,0.00,,---,0.00,VWS V14.01,2013-04-22 22:16:00,
2013-04-22 18:21:00,75.4,40.1,30.02,North,-999,-999.0,0.0,28,0.00,,---,0.00,VWS V14.01,2013-04-22 22:21:00,
2013-04-22 18:26:00,75.1,39.8,30.02,North,-999,-999.0,0.0,28,0.00,,---,0.00,VWS V14.01,2013-04-22 22:26:00,
2013-04-22 18:31:00,74.2,39.0,30.02,North,-999,-999.0,0.0,28,0.00,,---,0.00,VWS V14.01,2013-04-22 22:31:00,
2013-04-22 18:36:00,73.4,39.2,30.02,North,-999,-999.0,0.0,29,0.00,,---,0.00,VWS V14.01,2013-04-22 22:36:00,
2013-04-22 18:41:00,73.1,39.0,30.01,North,-999,-999.0,0.0,29,0.00,,---,0.00,VWS V14.01,2013-04-22 22:41:00,
2013-04-22 18:46:00,71.6,37.7,30.02,North,-999,-999.0,0.0,29,0.00,,---,0.00,VWS V14.01,2013-04-22 22:46:00,
2013-04-22 18:51:00,71.3,38.3,30.02,North,-999,-999.0,0.0,30,0.00,,---,0.00,VWS V14.01,2013-04-22 22:51:00,
2013-04-22 18:56:00,71.5,38.5,30.02,North,-999,-999.0,0.0,30,0.00,,---,0.00,VWS V14.01,2013-04-22 22:56:00,
2013-04-22 19:01:00,71.3,38.3,30.02,North,-999,-999.0,0.0,30,0.00,,---,0.00,VWS V14.01,2013-04-22 23:01:00,
2013-04-22 19:07:00,70.9,38.0,30.01,North,-999,-999.0,0.0,30,0.00,,---,0.00,VWS V14.01,2013-04-22 23:07:00,
2013-04-22 19:12:00,70.9,38.0,30.02,North,-999,-999.0,0.0,30,0.00,,---,0.00,VWS V14.01,2013-04-22 23:12:00,
2013-04-22 19:17:00,70.0,38.0,30.02,North,-999,-999.0,0.0,31,0.00,,---,0.00,VWS V14.01,2013-04-22 23:17:00,
2013-04-22 19:22:00,69.1,38.0,30.02,North,-999,-999.0,0.0,32,0.00,,---,0.00,VWS V14.01,2013-04-22 23:22:00,
2013-04-22 19:27:00,68.6,37.6,30.02,North,-999,-999.0,0.0,32,0.00,,---,0.00,VWS V14.01,2013-04-22 23:27:00,
2013-04-22 19:32:00,68.0,37.1,30.02,North,-999,-999.0,0.0,32,0.00,,---,0.00,VWS V14.01,2013-04-22 23:32:00,
2013-04-22 19:37:00,67.1,37.1,30.02,North,-999,-999.0,0.0,33,0.00,,---,0.00,VWS V14.01,2013-04-22 23:37:00,
2013-04-22 19:42:00,65.9,36.8,30.02,North,-999,-999.0,0.0,34,0.00,,---,0.00,VWS V14.01,2013-04-22 23:42:00,
2013-04-22 19:47:00,64.8,35.8,30.02,North,-999,-999.0,0.0,34,0.00,,---,0.00,VWS V14.01,2013-04-22 23:47:00,
2013-04-22 19:52:00,63.9,35.7,30.02,North,-999,-999.0,0.0,35,0.00,,---,0.00,VWS V14.01,2013-04-22 23:52:00,
2013-04-22 19:57:00,63.4,36.0,30.02,North,-999,-999.0,0.0,36,0.00,,---,0.00,VWS V14.01,2013-04-22 23:57:00,
2013-04-22 20:02:00,62.6,36.0,30.02,North,-999,-999.0,0.0,37,0.00,,---,0.00,VWS V14.01,2013-04-23 00:02:00,
2013-04-22 20:08:00,61.9,36.0,30.02,North,-999,-999.0,0.0,38,0.00,,---,0.00,VWS V14.01,2013-04-23 00:08:00,
2013-04-22 20:13:00,61.2,36.7,30.02,North,-999,-999.0,0.0,40,0.00,,---,0.00,VWS V14.01,2013-04-23 00:13:00,
2013-04-22 20:18:00,60.3,36.5,30.03,North,-999,-999.0,0.0,41,0.00,,---,0.00,VWS V14.01,2013-04-23 00:18:00,
2013-04-22 20:23:00,59.6,36.5,30.03,North,-999,-999.0,0.0,42,0.00,,---,0.00,VWS V14.01,2013-04-23 00:23:00,
2013-04-22 20:28:00,58.9,36.5,30.03,North,-999,-999.0,0.0,43,0.00,,---,0.00,VWS V14.01,2013-04-23 00:28:00,
2013-04-22 20:33:00,58.3,36.5,30.03,North,-999,-999.0,0.0,44,0.00,,---,0.00,VWS V14.01,2013-04-23 00:33:00,
2013-04-22 20:38:00,57.6,35.9,30.03,North,-999,-999.0,0.0,44,0.00,,---,0.00,VWS V14.01,2013-04-23 00:38:00,
2013-04-22 20:43:00,56.7,35.6,30.03,North,-999,-999.0,0.0,45,0.00,,---,0.00,VWS V14.01,2013-04-23 00:43:00,
2013-04-22 20:48:00,56.2,35.7,30.03,North,-999,-999.0,0.0,46,0.00,,---,0.00,VWS V14.01,2013-04-23 00:48:00,
2013-04-22 20:53:00,55.6,36.2,30.04,North,-999,-999.0,0.0,48,0.00,,---,0.00,VWS V14.01,2013-04-23 00:53:00,
2013-04-22 20:58:00,54.9,36.1,30.04,North,-999,-999.0,0.0,49,0.00,,---,0.00,VWS V14.01,2013-04-23 00:58:00,
2013-04-22 21:04:00,54.4,35.7,30.04,North,-999,-999.0,0.0,49,0.00,,---,0.00,VWS V14.01,2013-04-23 01:04:00,
2013-04-22 21:09:00,54.0,35.8,30.04,North,-999,-999.0,0.0,50,0.00,,---,0.00,VWS V14.01,2013-04-23 01:09:00,
2013-04-22 21:14:00,53.6,35.9,30.05,North,-999,-999.0,0.0,51,0.00,,---,0.00,VWS V14.01,2013-04-23 01:14:00,
2013-04-22 21:19:00,53.1,36.0,30.05,North,-999,-999.0,0.0,52,0.00,,---,0.00,VWS V14.01,2013-04-23 01:19:00,
2013-04-22 21:24:00,52.6,36.0,30.05,North,-999,-999.0,0.0,53,0.00,,---,0.00,VWS V14.01,2013-04-23 01:24:00,
2013-04-22 21:29:00,51.8,35.7,30.05,North,-999,-999.0,0.0,54,0.00,,---,0.00,VWS V14.01,2013-04-23 01:29:00,
2013-04-22 21:34:00,51.5,35.9,30.05,North,-999,-999.0,0.0,55,0.00,,---,0.00,VWS V14.01,2013-04-23 01:34:00,
2013-04-22 21:39:00,51.3,36.2,30.05,North,-999,-999.0,0.0,56,0.00,,---,0.00,VWS V14.01,2013-04-23 01:39:00,
2013-04-22 21:46:00,51.1,36.0,30.05,North,-999,-999.0,0.0,56,0.00,,---,0.00,VWS V14.01,2013-04-23 01:46:00,
2013-04-22 21:52:00,50.4,35.8,30.06,North,-999,-999.0,0.0,57,0.00,,---,0.00,VWS V14.01,2013-04-23 01:52:00,
2013-04-22 21:57:00,49.9,36.2,30.06,North,-999,-999.0,0.0,59,0.00,,---,0.00,VWS V14.01,2013-04-23 01:57:00,
2013-04-22 22:03:00,49.5,35.8,30.06,North,-999,-999.0,0.0,59,0.00,,---,0.00,VWS V14.01,2013-04-23 02:03:00,
2013-04-22 22:08:00,49.0,36.2,30.06,North,-999,-999.0,0.0,61,0.00,,---,0.00,VWS V14.01,2013-04-23 02:08:00,
2013-04-22 22:13:00,48.8,36.0,30.06,North,-999,-999.0,0.0,61,0.00,,---,0.00,VWS V14.01,2013-04-23 02:13:00,
2013-04-22 22:18:00,48.6,35.8,30.06,North,-999,-999.0,0.0,61,0.00,,---,0.00,VWS V14.01,2013-04-23 02:18:00,
2013-04-22 22:23:00,48.6,35.8,30.06,North,-999,-999.0,0.0,61,0.00,,---,0.00,VWS V14.01,2013-04-23 02:23:00,
2013-04-22 22:28:00,48.2,35.8,30.06,North,-999,-999.0,0.0,62,0.00,,---,0.00,VWS V14.01,2013-04-23 02:28:00,
2013-04-22 22:33:00,47.7,35.7,30.06,North,-999,-999.0,0.0,63,0.00,,---,0.00,VWS V14.01,2013-04-23 02:33:00,
2013-04-22 22:38:00,47.5,35.5,30.06,North,-999,-999.0,0.0,63,0.00,,---,0.00,VWS V14.01,2013-04-23 02:38:00,
2013-04-22 22:43:00,47.2,35.3,30.06,North,-999,-999.0,0.0,63,0.00,,---,0.00,VWS V14.01,2013-04-23 02:43:00,
2013-04-22 22:48:00,46.8,35.7,30.06,North,-999,-999.0,0.0,65,0.00,,---,0.00,VWS V14.01,2013-04-23 02:48:00,
2013-04-22 22:53:00,46.4,35.3,30.07,North,-999,-999.0,0.0,65,0.00,,---,0.00,VWS V14.01,2013-04-23 02:53:00,
2013-04-22 22:58:00,46.4,35.7,30.07,North,-999,-999.0,0.0,66,0.00,,---,0.00,VWS V14.01,2013-04-23 02:58:00,
2013-04-22 23:03:00,46.1,35.4,30.07,North,-999,-999.0,0.0,66,0.00,,---,0.00,VWS V14.01,2013-04-23 03:03:00,
2013-04-22 23:09:00,45.9,35.6,30.07,North,-999,-999.0,0.0,67,0.00,,---,0.00,VWS V14.01,2013-04-23 03:09:00,
2013-04-22 23:14:00,45.5,35.6,30.06,North,-999,-999.0,0.0,68,0.00,,---,0.00,VWS V14.01,2013-04-23 03:14:00,
2013-04-22 23:19:00,45.4,35.5,30.07,North,-999,-999.0,0.0,68,0.00,,---,0.00,VWS V14.01,2013-04-23 03:19:00,
2013-04-22 23:24:00,45.2,35.7,30.06,North,-999,-999.0,0.0,69,0.00,,---,0.00,VWS V14.01,2013-04-23 03:24:00,
2013-04-22 23:29:00,45.0,35.5,30.06,North,-999,-999.0,0.0,69,0.00,,---,0.00,VWS V14.01,2013-04-23 03:29:00,
2013-04-22 23:34:00,44.8,35.3,30.06,North,-999,-999.0,0.0,69,0.00,,---,0.00,VWS V14.01,2013-04-23 03:34:00,
2013-04-22 23:39:00,44.5,35.3,30.06,North,-999,-999.0,0.0,70,0.00,,---,0.00,VWS V14.01,2013-04-23 03:39:00,
2013-04-22 23:44:00,44.5,35.3,30.06,North,-999,-999.0,0.0,70,0.00,,---,0.00,VWS V14.01,2013-04-23 03:44:00,
2013-04-22 23:49:00,44.3,35.5,30.06,North,-999,-999.0,0.0,71,0.00,,---,0.00,VWS V14.01,2013-04-23 03:49:00,
2013-04-22 23:54:00,44.1,35.3,30.06,North,-999,-999.0,0.0,71,0.00,,---,0.00,VWS V14.01,2013-04-23 03:54:00,
2013-04-22 23:59:00,43.9,35.1,30.06,North,-999,-999.0,0.0,71,0.00,,---,0.00,VWS V14.01,2013-04-23 03:59:00,